Regional Weather Roundup
Issued by NWS

Home | Current Version | Previous Version | Text Only | Print | Product List | Glossary Off
Versions: 1 2 3 4 5 6 7 8 9 10 11 12 13 14 15 16 17 18 19 20 21 22 23 24 25 26 27 28 29 30 31 32 33 34 35 36 37 38 39 40 41 42 43 44 45 46 47 48 49 50

684
ASUS43 KBIS 061302
RWRND

NORTH DAKOTA REGIONAL WEATHER ROUNDUP
NATIONAL WEATHER SERVICE BISMARCK ND
700 AM CST SAT FEB 06 2016

NOTE: "FAIR" INDICATES FEW OR NO CLOUDS BELOW 12,000 FEET WITH NO
SIGNIFICANT WEATHER AND/OR OBSTRUCTIONS TO VISIBILITY.


NDZ001>003-009>011-017-061400-
NORTHWEST NORTH DAKOTA

CITY           SKY/WX    TMP DP  RH WIND       PRES   REMARKS
WILLISTON      CLOUDY    36  27  69 S8        29.77F
MINOT          CLOUDY    39  24  55 SW15G21   29.73F
MINOT AFB      CLOUDY    38  28  68 W16G24    29.72F
$$

NDZ018>021-031>035-040>046-061400-
SOUTHWEST NORTH DAKOTA

CITY           SKY/WX    TMP DP  RH WIND       PRES   REMARKS
BISMARCK       CLOUDY    34  24  67 SW7       29.86F
DICKINSON      PTCLDY    33  21  61 W13       29.83F
GARRISON         N/A     31  24  75 SW6       29.78F
HETTINGER ARPT PTCLDY    30  20  66 W10       29.91F
$$

NDZ004>008-012>016-024-026-027-054-061400-
NORTHEAST NORTH DAKOTA

CITY           SKY/WX    TMP DP  RH WIND       PRES   REMARKS
GRAND FORKS    CLOUDY    21  16  81 S12       29.85F WCI   9
GRND FRKS AFB  CLOUDY    20  17  87 S9        29.83F WCI   9
DEVILS LAKE    CLOUDY    29  24  82 S8        29.78F
$$

NDZ022-023-025-028>030-036>039-047>053-061400-
SOUTHEAST NORTH DAKOTA

CITY           SKY/WX    TMP DP  RH WIND       PRES   REMARKS
FARGO          CLOUDY    23  18  81 S12       29.91F WCI  12
JAMESTOWN      CLOUDY    32  23  69 SW14      29.83F
$$





USA.gov is the U.S. government's official web portal to all federal, state and local government web resources and services.